N324BA KVNY-KHND

Flight info

Callsign N324BA
Flight time N/A
Altitude 37000
Route HARYS5 MISEN NTNDO1
Aircraft C750/M-SBDE3FGHRWXY/S

Departure

Time 2026-05-09 00:14
Airport Van Nuys Airport (KVNY)

Arrival

Time N/A
Airport Henderson Executive Airport (KHND)
Time Latitude Longitude Altitude Speed Heading
2026-05-08 23:35 34.20588 -118.48724 774 ft 0 kts 358°
2026-05-09 00:06 34.20588 -118.48725 792 ft 0 kts 352°
2026-05-09 00:07 34.20591 -118.48727 792 ft 2 kts 332°
2026-05-09 00:07 34.20596 -118.48735 774 ft 0 kts 291°
2026-05-09 00:07 34.20597 -118.48738 774 ft 0 kts 289°
2026-05-09 00:07 34.20599 -118.48748 774 ft 4 kts 284°
2026-05-09 00:08 34.20634 -118.48796 776 ft 8 kts 322°
2026-05-09 00:08 34.20696 -118.48828 779 ft 13 kts 355°
2026-05-09 00:08 34.20800 -118.48821 781 ft 13 kts 360°
2026-05-09 00:08 34.20883 -118.48826 783 ft 10 kts 357°
2026-05-09 00:09 34.20945 -118.48832 784 ft 8 kts 355°
2026-05-09 00:09 34.21010 -118.48838 786 ft 11 kts 355°
2026-05-09 00:09 34.21106 -118.48847 788 ft 17 kts 356°
2026-05-09 00:09 34.21239 -118.48859 789 ft 20 kts 356°
2026-05-09 00:10 34.21367 -118.48871 791 ft 17 kts 356°
2026-05-09 00:10 34.21473 -118.48882 794 ft 14 kts 356°
2026-05-09 00:10 34.21560 -118.48894 795 ft 12 kts 350°
2026-05-09 00:10 34.21632 -118.48913 796 ft 11 kts 348°
2026-05-09 00:11 34.21726 -118.48933 799 ft 16 kts 352°
2026-05-09 00:11 34.21836 -118.48946 805 ft 10 kts 355°
2026-05-09 00:11 34.21862 -118.48948 806 ft 0 kts 356°
2026-05-09 00:11 34.21864 -118.48948 806 ft 0 kts 354°
2026-05-09 00:12 34.21873 -118.48951 807 ft 5 kts 341°
2026-05-09 00:12 34.21892 -118.49015 807 ft 11 kts 269°
2026-05-09 00:12 34.21886 -118.49109 807 ft 6 kts 266°
2026-05-09 00:13 34.21871 -118.49123 806 ft 5 kts 189°
2026-05-09 00:13 34.21860 -118.49123 805 ft 1 kts 176°
2026-05-09 00:13 34.21686 -118.49106 800 ft 69 kts 175°
2026-05-09 00:13 34.20896 -118.49033 824 ft 141 kts 174°
2026-05-09 00:14 34.19920 -118.48941 1289 ft 144 kts 173°
2026-05-09 00:14 34.18918 -118.48825 1775 ft 144 kts 173°
2026-05-09 00:14 34.17987 -118.48327 2138 ft 154 kts 145°
2026-05-09 00:14 34.17212 -118.47330 2380 ft 175 kts 123°
2026-05-09 00:15 34.16700 -118.45900 2665 ft 188 kts 111°
2026-05-09 00:15 34.16089 -118.44439 2996 ft 208 kts 122°
2026-05-09 00:15 34.15240 -118.42931 3389 ft 224 kts 124°
2026-05-09 00:15 34.14353 -118.41332 3880 ft 235 kts 124°
2026-05-09 00:16 34.13447 -118.39632 4281 ft 249 kts 119°
2026-05-09 00:16 34.13006 -118.37539 4313 ft 276 kts 90°
2026-05-09 00:16 34.13536 -118.35279 4618 ft 283 kts 56°
2026-05-09 00:16 34.14959 -118.33770 5495 ft 268 kts 26°
2026-05-09 00:17 34.16767 -118.33212 5880 ft 279 kts
2026-05-09 00:17 34.18627 -118.33827 6369 ft 279 kts 328°
2026-05-09 00:17 34.19924 -118.35483 7141 ft 269 kts 301°
2026-05-09 00:17 34.20758 -118.37544 7462 ft 282 kts 295°
2026-05-09 00:18 34.21644 -118.39713 7897 ft 284 kts 300°
2026-05-09 00:18 34.22814 -118.41550 8708 ft 274 kts 310°
2026-05-09 00:18 34.24129 -118.43314 8920 ft 291 kts 310°
2026-05-09 00:18 34.25656 -118.44961 9325 ft 298 kts 329°
2026-05-09 00:19 34.27665 -118.45491 9956 ft 301 kts 359°
2026-05-09 00:19 34.29725 -118.45239 10700 ft 294 kts
2026-05-09 00:19 34.31791 -118.44990 11116 ft 303 kts
2026-05-09 00:19 34.33904 -118.44727 11619 ft 306 kts
2026-05-09 00:20 34.35931 -118.43962 12128 ft 311 kts 26°
2026-05-09 00:20 34.37634 -118.42338 12697 ft 312 kts 43°
2026-05-09 00:20 34.39150 -118.40459 13303 ft 313 kts 44°
2026-05-09 00:20 34.40755 -118.38669 13836 ft 315 kts 39°
2026-05-09 00:21 34.42485 -118.37033 14328 ft 317 kts 36°
2026-05-09 00:21 34.44230 -118.35381 14808 ft 320 kts 38°
2026-05-09 00:21 34.45943 -118.33643 15298 ft 322 kts 39°
2026-05-09 00:21 34.47662 -118.31887 15783 ft 325 kts 38°
2026-05-09 00:22 34.49415 -118.30142 16282 ft 328 kts 37°
2026-05-09 00:22 34.49987 -118.29577 16446 ft 328 kts 37°